Weather in Kasplya-2

Russia / Smolensk Oblast     54°59′12″N   31°38′03″E
temp.,
°C
wind,
m/s
gust,
m/s
humid.,
%
clouds,
%
prec.,
mm/h
press.,
hPa
HPBL,
m
16 april, fri
fri1600:00+10ne61490100 0.9 1015684
03:00+9ne51293100 1.4 1014621
06:00+8ene51390100 1.1 1015709
09:00+9ene51089100 1.2 1016740
12:00+12e5978100 0.0 1016918
15:00+12ene5982100 0.9 1017930
18:00+10e4992100 3.9 1016514
21:00+10ene4994100 18.4 1017554
17 april, sat
sat1700:00+9ene41093100 2.2 1017393
03:00+8ene389464 2.3 1018297
06:00+8e499569 0.6 1018415
09:00+10e358316 0.7 1020496
12:00+13ene456530 0.1 10201209
15:00+12ne6876100 0.4 10201008
18:00+11ne51479100 0.3 10191265
21:00+11ne61385100 4.4 1018890
18 april, sun
sun1800:00+10ne61478100 0.1 1018784
03:00+8ene51081100 0.1 10191010
06:00+7ene3791100 0.4 1020560
09:00+8ene3582100 0.5 1020695
12:00+9ne567598 0.2 10201048
15:00+10ne5774100 0.4 10201068
18:00+7ne5984100 0.2 1021617
21:00+6ene4986100 0.2 1022953
19 april, mon
mon1900:00+6ne41090100 0.0 1021492
03:00+5ne51191100 0.1 1021581
06:00+5ene61188100 0.0 1020743
09:00+6ene61287100 0.1 10201018
12:00+6e61190100 0.9 10191053
15:00+7e61189100 4.1 10181045
18:00+7e51393100 9.4 10181214
21:00+7e61389100 23.1 10171135
20 april, tue
tue2000:00+7e61389100 2.4 1016857
03:00+6ene61291100 2.4 1014758
06:00+6ene51194100 1.1 10111079
09:00+6ene61391100 2.1 1009987
12:00+5ene71492100 2.2 1006999
15:00+5ene71695100 7.1 10021268
18:00+4ene71595100 5.7 9971070
21:00+7e61394100 12.0 994655